KF5JLK Weather Reports


Display with metric or nautical units.
time (UTC)temp
F
wind
direction
speed
MPH
gust
MPH
rain 1hr
in
rain 24hr
in
rain mn
in
humidity
%
barometer
mb
20220808100045 0 0.0 0.0 0.00 0.00 0.00 1017.2
20220808094541 0 0.0 0.0 0.00 0.00 0.00 1017.3
20220808093037 0 0.0 0.0 0.00 0.00 0.00 1017.4
20220808091533 0 0.0 0.0 0.00 0.00 0.00 1017.5
20220808090034 0 0.0 0.0 0.00 0.00 0.00 1017.6
20220808084524 0 0.0 0.0 0.00 0.00 0.00 1017.9
20220808083022 78 221 1.0 0.0 0.00 0.00 0.00 84 1017.8
20220808081520 79 252 2.0 0.0 0.00 0.00 0.00 83 1017.9
20220808080018 79 146 1.0 0.0 0.00 0.00 0.00 82 1018.0
20220808074517 79 190 1.0 0.0 0.00 0.00 0.00 81 1018.0
20220808073018 80 246 1.0 0.0 0.00 0.00 0.00 80 1018.0
20220808071528 80 189 2.0 0.0 0.00 0.00 0.00 79 1018.1
20220808070021 80 260 1.0 0.0 0.00 0.00 0.00 78 1018.0
20220808064510 80 196 0.0 0.0 0.00 0.00 0.00 77 1018.0
20220808063015 81 203 1.0 0.0 0.00 0.00 0.00 76 1018.0
20220808061507 81 244 0.0 0.0 0.00 0.00 0.00 75 1018.1
20220808060007 81 224 0.0 0.0 0.00 0.00 0.00 75 1018.0
20220808054507 82 183 1.0 0.0 0.00 0.00 0.00 73 1018.0
20220808053004 82 191 2.0 0.0 0.00 0.00 0.00 73 1017.9
20220808051508 82 134 1.0 0.0 0.00 0.00 0.00 72 1017.6
20220808050110 83 210 1.0 0.0 0.00 0.00 0.00 71 1017.5
20220808044600 83 194 2.0 0.0 0.00 0.00 0.00 70 1017.5
20220808043100 83 201 3.0 0.0 0.00 0.00 0.00 69 1017.4
20220808041559 84 240 3.0 0.0 0.00 0.00 0.00 68 1017.2
20220808040100 84 181 2.0 0.0 0.00 0.00 0.00 67 1017.3
20220808034558 84 186 2.0 0.0 0.00 0.00 0.00 67 1017.2
20220808033100 85 212 1.0 0.0 0.00 0.00 0.00 66 1017.2
20220808031557 85 148 2.0 0.0 0.00 0.00 0.00 66 1017.1
20220808030100 85 139 1.0 0.0 0.00 0.00 0.00 65 1017.0
20220808024605 85 158 1.0 0.0 0.00 0.00 0.00 64 1017.0
20220808023057 86 228 0.0 0.0 0.00 0.00 0.00 63 1016.7
20220808021558 86 155 1.0 0.0 0.00 0.00 0.00 63 1016.7
20220808020056 86 158 1.0 0.0 0.00 0.00 0.00 62 1016.6
20220808014553 86 233 2.0 0.0 0.00 0.00 0.00 61 1016.6
20220808013115 87 191 0.0 0.0 0.00 0.00 0.00 59 1016.4
20220808011554 87 210 1.0 0.0 0.00 0.00 0.00 57 1016.2
20220808010053 88 139 1.0 0.0 0.00 0.00 0.00 58 1016.0
20220808004552 89 160 2.0 0.0 0.00 0.00 0.00 56 1015.7
20220808003053 90 131 2.0 0.0 0.00 0.00 0.00 54 1015.8
20220808001555 91 195 3.0 0.0 0.00 0.00 0.00 52 1015.3
20220808000054 93 73 3.0 0.0 0.00 0.00 0.00 49 1015.1
20220807234554 93 159 2.0 0.0 0.00 0.00 0.00 47 1015.1
20220807233050 92 119 2.0 0.0 0.00 0.00 0.00 48 1015.1
20220807231550 93 91 2.0 0.0 0.00 0.00 0.00 48 1015.0
20220807230049 95 233 1.0 0.0 0.00 0.00 0.00 45 1014.8
20220807224549 95 179 2.0 0.0 0.00 0.00 0.00 45 1014.9
20220807223049 96 188 2.0 0.0 0.00 0.00 0.00 44 1014.7
20220807221549 96 191 1.0 0.0 0.00 0.00 0.00 43 1014.8
20220807220047 98 237 0.0 0.0 0.00 0.00 0.00 43 1014.8
20220807214547 100 103 0.0 0.0 0.00 0.00 0.00 41 1014.7
20220807213043 99 96 0.0 0.0 0.00 0.00 0.00 42 1014.8
20220807211541 99 193 0.0 0.0 0.00 0.00 0.00 42 1014.9
20220807210037 97 226 1.0 0.0 0.00 0.00 0.00 45 1015.5
20220807204533 96 215 1.0 0.0 0.00 0.00 0.00 42 1015.5
20220807203030 97 215 2.0 0.0 0.00 0.00 0.00 41 1015.7
20220807201527 97 85 2.0 0.0 0.00 0.00 0.00 40 1016.5
20220807200027 96 170 1.0 0.0 0.00 0.00 0.00 41 1016.8
20220807194533 96 241 2.0 0.0 0.00 0.00 0.00 41 1017.0
20220807193019 95 139 3.0 0.0 0.00 0.00 0.00 43 1017.2
20220807191515 95 234 2.0 0.0 0.00 0.00 0.00 43 1017.3
20220807190014 94 204 3.0 0.0 0.00 0.00 0.00 45 1017.7
20220807184507 93 176 6.0 0.0 0.00 0.00 0.00 46 1017.9
20220807183003 93 254 3.0 0.0 0.00 0.00 0.00 47 1018.2
20220807181602 92 123 2.0 0.0 0.00 0.00 0.00 49 1018.5
20220807180056 92 196 4.0 0.0 0.00 0.00 0.00 50 1018.9
20220807174552 92 61 3.0 0.0 0.00 0.00 0.00 50 1019.2
20220807173051 90 77 4.0 0.0 0.00 0.00 0.00 53 1019.3
20220807171602 90 240 3.0 0.0 0.00 0.00 0.00 53 1019.4
20220807170043 90 127 1.0 0.0 0.00 0.00 0.00 54 1019.7
20220807164540 89 211 3.0 0.0 0.00 0.00 0.00 56 1020.0
20220807163037 88 134 3.0 0.0 0.00 0.00 0.00 59 1019.9
20220807161534 87 181 2.0 0.0 0.00 0.00 0.00 60 1019.9
20220807160030 86 219 4.0 0.0 0.00 0.00 0.00 61 1019.9
20220807154526 84 193 2.0 0.0 0.00 0.00 0.00 64 1020.0
20220807153023 83 224 2.0 0.0 0.00 0.00 0.00 71 1019.9
20220807151521 84 133 2.0 0.0 0.00 0.00 0.00 70 1019.8
20220807150021 83 208 1.0 0.0 0.00 0.00 0.00 74 1019.8
20220807144518 82 174 2.0 0.0 0.00 0.00 0.00 76 1019.9
20220807143014 82 165 4.0 0.0 0.00 0.00 0.00 79 1019.9
20220807141518 81 210 1.0 0.0 0.00 0.00 0.00 83 1020.0
20220807140010 79 225 1.0 0.0 0.00 0.00 0.00 86 1020.0
20220807134517 78 183 2.0 0.0 0.00 0.00 0.00 87 1019.9
20220807133007 78 200 0.0 0.0 0.00 0.00 0.00 88 1019.8
20220807131515 77 184 2.0 0.0 0.00 0.00 0.00 88 1019.5
20220807130005 77 243 0.0 0.0 0.00 0.00 0.00 89 1019.4
20220807124504 77 191 0.0 0.0 0.00 0.00 0.00 89 1019.2
20220807123002 0 0.0 0.0 0.00 0.00 0.00 1019.1
20220807121558 0 0.0 0.0 0.00 0.00 0.00 1018.8
20220807120052 0 0.0 0.0 0.00 0.00 0.00 1018.6
20220807114550 0 0.0 0.0 0.00 0.00 0.00 1018.3
20220807113043 0 0.0 0.0 0.00 0.00 0.00 1018.2
20220807111540 0 0.0 0.0 0.00 0.00 0.00 1017.8
20220807110035 0 0.0 0.0 0.00 0.00 0.00 1017.7
20220807104536 0 0.0 0.0 0.00 0.00 0.00 1017.6
20220807103026 0 0.0 0.0 0.00 0.00 0.00 1017.6
20220807101522 0 0.0 0.0 0.00 0.00 0.00 1017.3